Tracking 27422 objects as of 30-May-2023
HD Live streaming from Space Station
objects crossing your sky now

STARLINK-4595

Track STARLINK-4595 now!
10-day predictions
STARLINK-4595 is classified as:


NORAD ID: 53627
Int'l Code: 2022-104AR
Perigee: 546.1 km
Apogee: 547.7 km
Inclination: 53.2 °
Period: 95.4 minutes
Semi major axis: 6917 km
RCS: Unknown
Launch date: August 28, 2022
Source: United States (US)
Launch site: AIR FORCE EASTERN TEST RANGE (AFETR)
Your satellite tracking list
Your tracking list is empty




NASA's NSSDC Master Catalog

Two Line Element Set (TLE):
1 53627U 22104AR  23150.05522237 -.00000874  00000-0 -36820-4 0  9993
2 53627  53.2157 108.7080 0001136  91.7411 268.3712 15.08829784 41899
Source of the keplerian elements: AFSPC